Morris, MN

4:07 AM CDT on March 28, 2017 (GMT -0500)
Morris Municipal

Weather History for KMOX - July, 2013

Change the Weather History Date:

Tuesday, July 30, 2013

  Actual Average Record
Temperature  
Mean Temperature 68 °F -  
Max Temperature 77 °F 78 °F 100 °F (2006)
Min Temperature 60 °F 57 °F 6 °F (1997)
Cooling Degree Days 4    
Growing Degree Days 18 (Base 50)    
Moisture  
Dew Point 62 °F    
Average Humidity 84    
Maximum Humidity 100    
Minimum Humidity 61    
Precipitation  
Precipitation 0.00 in - - ()
Sea Level Pressure  
Sea Level Pressure 30.07 in    
Wind  
Wind Speed 4 mph (South)    
Max Wind Speed 7 mph    
Max Gust Speed -    
Visibility 10 miles    
Events      
Averages and records for this station are not official NWS values.
T = Trace of Precipitation, MM = Missing Value Source: NWS Daily Summary

Daily Weather History Graph

Daily Weather History Graph

Search for Another Location

Airport or City:

Trip Planner

Search our weather history database for the weather conditions in past years. The results will help you decide how hot, cold, wet, or windy it might be!

Date:

Astronomy

Jul. 30, 2013 Rise Set
Actual Time 6:05 AM CDT 8:54 PM CDT
Civil Twilight 5:31 AM CDT 9:28 PM CDT
Nautical Twilight 4:47 AM CDT 10:12 PM CDT
Astronomical Twilight 3:55 AM CDT 11:03 PM CDT
Moon 12:26 AM CDT (7/30) 3:14 PM CDT (7/30)
Length of Visible Light 15h 57m
Length of Day
14h 48m
Last Quarter, 41% of the Moon is Illuminated
Jul 30
Last Quarter
Aug 6
New
Aug 14
First Quarter
Aug 20
Full
Aug 28
Last Quarter

Hourly Weather History & Observations

Time (CDT) Temp. Dew Point Humidity Pressure Visibility Wind Dir Wind Speed Gust Speed Precip Events Conditions
12:09 AM 62.6 °F 59.0 °F 88% 30.05 in 10.0 mi SE 6.9 mph - N/A   Overcast
12:29 AM 62.6 °F 59.0 °F 88% 30.06 in 10.0 mi SE 6.9 mph - N/A   Overcast
12:49 AM 62.6 °F 59.0 °F 88% 30.06 in 10.0 mi SSE 5.8 mph - N/A   Overcast
1:09 AM 60.8 °F 59.0 °F 94% 30.05 in 10.0 mi SE 5.8 mph - N/A   Overcast
1:29 AM 60.8 °F 60.8 °F 100% 30.05 in 10.0 mi SE 5.8 mph - N/A   Overcast
1:49 AM 60.8 °F 60.8 °F 100% 30.05 in 10.0 mi SE 5.8 mph - N/A   Overcast
2:09 AM 60.8 °F 59.0 °F 94% 30.05 in 10.0 mi SSE 5.8 mph - N/A   Overcast
2:29 AM 60.8 °F 60.8 °F 100% 30.05 in 10.0 mi SSE 4.6 mph - N/A   Overcast
2:49 AM 60.8 °F 60.8 °F 100% 30.05 in 10.0 mi SSE 5.8 mph - N/A   Overcast
3:09 AM 60.8 °F 60.8 °F 100% 30.05 in 10.0 mi SE 4.6 mph - N/A   Overcast
3:29 AM 60.8 °F 60.8 °F 100% 30.05 in 10.0 mi SE 4.6 mph - N/A   Overcast
3:49 AM 60.8 °F 60.8 °F 100% 30.05 in 10.0 mi SE 4.6 mph - N/A   Overcast
4:09 AM 60.8 °F 60.8 °F 100% 30.05 in 10.0 mi SSE 3.5 mph - N/A   Overcast
4:29 AM 60.8 °F 60.8 °F 100% 30.05 in 10.0 mi SE 4.6 mph - N/A   Overcast
4:49 AM 62.6 °F 60.8 °F 94% 30.05 in 10.0 mi SE 3.5 mph - N/A   Overcast
5:09 AM 62.6 °F 60.8 °F 94% 30.05 in 10.0 mi SE 4.6 mph - N/A   Overcast
5:29 AM 62.6 °F 60.8 °F 94% 30.06 in 10.0 mi SSE 3.5 mph - N/A   Overcast
5:49 AM 62.6 °F 60.8 °F 94% 30.06 in 10.0 mi Calm Calm - N/A   Overcast
6:09 AM 62.6 °F 60.8 °F 94% 30.07 in 10.0 mi Calm Calm - N/A   Overcast
6:29 AM 62.6 °F 60.8 °F 94% 30.07 in 7.0 mi Calm Calm - N/A   Overcast
6:49 AM 62.6 °F 60.8 °F 94% 30.07 in 7.0 mi Calm Calm - N/A   Overcast
7:09 AM 62.6 °F 60.8 °F 94% 30.07 in 5.0 mi Calm Calm - N/A   Overcast
7:29 AM 62.6 °F 60.8 °F 94% 30.07 in 7.0 mi Calm Calm - N/A   Overcast
7:49 AM 62.6 °F 62.6 °F 100% 30.08 in 10.0 mi SSW 3.5 mph - N/A   Overcast
8:09 AM 64.4 °F 62.6 °F 94% 30.08 in 7.0 mi Calm Calm - N/A   Overcast
8:29 AM 64.4 °F 62.6 °F 94% 30.08 in 10.0 mi Calm Calm - N/A   Overcast
8:49 AM 64.4 °F 62.6 °F 94% 30.08 in 10.0 mi WNW 5.8 mph - N/A   Overcast
9:09 AM 66.2 °F 62.6 °F 88% 30.08 in 10.0 mi NW 4.6 mph - N/A   Overcast
9:29 AM 66.2 °F 62.6 °F 88% 30.09 in 10.0 mi NW 3.5 mph - N/A   Overcast
9:49 AM 68.0 °F 60.8 °F 78% 30.08 in 10.0 mi Calm Calm - N/A   Overcast
10:09 AM 66.2 °F 59.0 °F 78% 30.08 in 10.0 mi Calm Calm - N/A   Overcast
10:29 AM 68.0 °F 60.8 °F 78% 30.08 in 10.0 mi Calm Calm - N/A   Overcast
10:49 AM 68.0 °F 59.0 °F 73% 30.08 in 10.0 mi Calm Calm - N/A   Overcast
11:09 AM 69.8 °F 60.8 °F 73% 30.09 in 10.0 mi Calm Calm - N/A   Overcast
11:29 AM 71.6 °F 60.8 °F 69% 30.08 in 10.0 mi NNE 3.5 mph - N/A   Overcast
11:49 AM 71.6 °F 60.8 °F 69% 30.08 in 10.0 mi Calm Calm - N/A   Overcast
12:09 PM 71.6 °F 60.8 °F 69% 30.09 in 10.0 mi North 3.5 mph - N/A   Overcast
12:29 PM 71.6 °F 60.8 °F 69% 30.09 in 10.0 mi Calm Calm - N/A   Overcast
12:49 PM 71.6 °F 60.8 °F 69% 30.09 in 10.0 mi Calm Calm - N/A   Overcast
1:09 PM 71.6 °F 60.8 °F 69% 30.08 in 10.0 mi Calm Calm - N/A   Overcast
1:29 PM 71.6 °F 60.8 °F 69% 30.08 in 10.0 mi Calm Calm - N/A   Overcast
1:49 PM 73.4 °F 62.6 °F 69% 30.07 in 10.0 mi Calm Calm - N/A   Overcast
2:09 PM 73.4 °F 62.6 °F 69% 30.07 in 10.0 mi Calm Calm - N/A   Overcast
2:29 PM 75.2 °F 62.6 °F 65% 30.07 in 10.0 mi Calm Calm - N/A   Mostly Cloudy
2:49 PM 75.2 °F 62.6 °F 65% 30.07 in 10.0 mi West 4.6 mph - N/A   Mostly Cloudy
3:09 PM 75.2 °F 62.6 °F 65% 30.08 in 10.0 mi West 5.8 mph - N/A   Overcast
3:29 PM 73.4 °F 62.6 °F 69% 30.08 in 10.0 mi WSW 3.5 mph - N/A   Overcast
3:49 PM 75.2 °F 62.6 °F 65% 30.08 in 10.0 mi West 3.5 mph - N/A   Mostly Cloudy
4:09 PM 77.0 °F 62.6 °F 61% 30.08 in 10.0 mi NW 5.8 mph - N/A   Scattered Clouds
4:29 PM 75.2 °F 62.6 °F 65% 30.08 in 10.0 mi WNW 4.6 mph - N/A   Scattered Clouds
4:49 PM 75.2 °F 62.6 °F 65% 30.08 in 10.0 mi West 3.5 mph - N/A   Mostly Cloudy
5:09 PM 75.2 °F 62.6 °F 65% 30.08 in 10.0 mi Calm Calm - N/A   Mostly Cloudy
5:29 PM 75.2 °F 62.6 °F 65% 30.07 in 10.0 mi Calm Calm - N/A   Scattered Clouds
5:49 PM 75.2 °F 62.6 °F 65% 30.07 in 10.0 mi Calm Calm - N/A   Clear
6:09 PM 75.2 °F 64.4 °F 69% 30.05 in 10.0 mi Calm Calm - N/A   Clear
6:29 PM 73.4 °F 64.4 °F 73% 30.05 in 10.0 mi SSW 4.6 mph - N/A   Clear
6:49 PM 71.6 °F 64.4 °F 78% 30.03 in 10.0 mi South 6.9 mph - N/A   Clear
7:09 PM 71.6 °F 62.6 °F 73% 30.04 in 10.0 mi Calm Calm - N/A   Clear
7:29 PM 71.6 °F 64.4 °F 78% 30.06 in 10.0 mi Calm Calm - N/A   Scattered Clouds
7:49 PM 71.6 °F 64.4 °F 78% 30.05 in 10.0 mi Calm Calm - N/A   Mostly Cloudy
8:09 PM 71.6 °F 66.2 °F 83% 30.04 in 10.0 mi Calm Calm - N/A   Scattered Clouds
8:29 PM 69.8 °F 66.2 °F 88% 30.04 in 10.0 mi Calm Calm - N/A   Clear
8:49 PM 69.8 °F 64.4 °F 83% 30.04 in 10.0 mi Calm Calm - N/A   Clear
9:09 PM 66.2 °F 62.6 °F 88% 30.06 in 10.0 mi South 4.6 mph - N/A   Clear
9:29 PM 66.2 °F 62.6 °F 88% 30.06 in 10.0 mi SSW 3.5 mph - N/A   Clear
9:49 PM 64.4 °F 62.6 °F 94% 30.07 in 10.0 mi SSW 3.5 mph - N/A   Clear
10:09 PM 64.4 °F 62.6 °F 94% 30.07 in 10.0 mi SSW 3.5 mph - N/A   Clear
10:29 PM 64.4 °F 62.6 °F 94% 30.07 in 10.0 mi Calm Calm - N/A   Clear
10:49 PM 64.4 °F 62.6 °F 94% 30.07 in 10.0 mi Calm Calm - N/A   Clear
11:09 PM 62.6 °F 62.6 °F 100% 30.07 in 10.0 mi Calm Calm - N/A   Clear
11:29 PM 62.6 °F 62.6 °F 100% 30.07 in 7.0 mi Calm Calm - N/A   Clear
11:49 PM 62.6 °F 62.6 °F 100% 30.07 in 10.0 mi WSW 3.5 mph - N/A   Clear